Home   Weather   Camagüey   Past weeks
Flag for Cuba

Past Weather in Camagüey, Cuba — Yesterday and Last 2 Weeks

Now
86 °F

Partly sunny.


Feels Like: 92 °F
Forecast: N/A
Wind: 14 mph from Northeast

Location: Camaguey Aeropuerto

Current Time: Apr 25, 2019 at 6:02:09 pm

Latest Report: Apr 25, 2019 at 4:50 pm


Visibility: 6 mi

Pressure: 29.92 "Hg

Humidity: 62%

Dew Point: 72 °F

Location of CamagüeyLocation

Past Weather in Camagüey — Graph

°F

Camagüey Temperature Yesterday

Maximum temperature yesterday: 86 °F (at 3:52 pm)
Minimum temperature yesterday: 70 °F (at 4:50 am)
Average temperature yesterday: 77 °F

High & Low Weather Summary for the Past Weeks

 TemperatureHumidityPressure
High90 °F (Apr 13, 2:50 pm)100% (Apr 10, 9:50 pm)30.09 "Hg (Apr 10, 9:50 pm)
Low68 °F (Apr 17, 6:50 am)46% (Apr 20, 2:50 pm)29.83 "Hg (Apr 10, 4:50 pm)
Average78 °F79%29.99 "Hg
* Reported Apr 10 4:50 pm — Apr 25 4:50 pm, Camagüey. Weather by CustomWeather, © 2019

Note: Actual official high and low records may vary slightly from our data, if they occured in-between our weather recording intervals... More about our weather records

Advertising

Camagüey Weather History for the Previous 24 Hours

Scroll right to see more
 ConditionsComfort  
Time TempWeatherWind HumidityBarometerVisibility
4:50 pm
Thu, Apr 25
86 °FPartly sunny.14 mph62%29.92 "Hg6 mi
3:50 pm88 °FScattered clouds.5 mph52%29.95 "Hg6 mi
2:50 pm88 °FScattered clouds.5 mph49%29.95 "Hg6 mi
1:50 pm86 °FScattered clouds.7 mph52%29.98 "Hg6 mi
12:50 pm86 °FScattered clouds.6 mph52%29.98 "Hg6 mi
11:50 am84 °FScattered clouds.7 mph58%30.01 "Hg6 mi
10:50 am82 °FPassing clouds.8 mph62%30.01 "Hg6 mi
9:50 am81 °FPassing clouds.10 mph70%30.01 "Hg6 mi
8:50 am77 °FPassing clouds.12 mph79%30.01 "Hg6 mi
7:50 am72 °FPassing clouds.7 mph94%29.98 "Hg6 mi
6:50 am70 °FPassing clouds.6 mph94%29.98 "Hg6 mi
5:50 am70 °FClear.8 mph100%29.95 "Hg5 mi
4:50 am70 °FClear.7 mph94%29.95 "Hg5 mi
3:50 am70 °FClear.5 mph100%29.95 "Hg5 mi
2:50 am72 °FClear.5 mph94%29.95 "Hg6 mi
1:50 am72 °FClear.8 mph94%29.98 "Hg6 mi
12:50 am72 °FClear.7 mph94%29.98 "Hg6 mi
11:50 pm
Wed, Apr 24
73 °FClear.8 mph89%30.01 "Hg6 mi
10:50 pm75 °FClear.10 mph83%30.01 "Hg6 mi
9:50 pm73 °FClear.9 mph89%30.01 "Hg6 mi
8:50 pm75 °FPassing clouds.9 mph83%29.98 "Hg6 mi
7:50 pm77 °FPassing clouds.14 mph74%29.95 "Hg6 mi
6:50 pm81 °FPartly sunny.15 mph70%29.95 "Hg6 mi
Weather by CustomWeather, © 2019

See weather overview